STARLINK-32473, 62049

Orbit data source: Space-Track

STARLINK-32473, 62049 is a payload satellite owned by SpaceX/Seattle (US) in LEO that was launched on Thu, 21 Nov 2024 UTC via an FALCON 9 launch vehicle from the Air Force Eastern Test Range (AFETR). Payload-class satellites include a variety of spacecraft equipped with specific instruments for various scientific and technological missions. These include communications satellites like Starlink; space stations such as the ISS; scientific satellites like the Hubble; Earth observation satellites from companies like Planet Labs, Umbra, and HawkEye 360; GPS; miniature CubeSats for education and research; and military/defense satellites.

Loading next visibility...
Identifier
62049, 2024-216T
Orbit
LEO
Country
Flag of USUS
Related business
Manufacturer
SpaceX/Seattle
Mission
Operational Commercial Communications
Bus & Motor
STARLINK V2M, Unknown motor
Mass
730 kg wet, ~700 kg dry
Launch date (UTC)
2024-11-21 (1 year ago)
Launch vehicle
FALCON 9
Launch site
Air Force Eastern Test Range (AFETR)
Object type
Payload
Rocket body
Debris
Shape & HBR
Box + 2 Pan, 17.7 m
Radar Cross Section
33.884 m², Large (>1 m²)

Expand to show TLE details & history
Last TLE update: 1 day ago

TLE from 1 day ago
0 STARLINK-32473
1 62049U 24216T   25353.71392576  .00004910  00000-0  18790-3 0  9996
2 62049  43.0027 348.0471 0001314 275.0324  85.0378 15.27565505 60488
Epoch: 2025-12-19T17:08Z
TLE epoch observation values (Epoch: 2025-12-19T17:08:03.185Z)
Latitude
-0°
Longitude
2.4827°
Altitude
482.79 km
Speed
7.626 km/s
True Right ascension
23h 12m 11s
True Declination
0° 00' 00"
Sunlit
Object was in daylight at epoch
Visualization orbit readout
Latitude
Unknown
Longitude
Unknown
Altitude
Unknown
Speed
Unknown
Apparent Right ascension
Unknown
Apparent Declination
Unknown
Sunlit
N/A
Visualization observer readout
Local Sidereal Time
01:10:38
Azimuth
Unknown
Elevation
Unknown
Doppler factor
Unknown
Orbital elements
Apogee altitude
485.939 km
Perigee altitude
484.135 km
Semi-major axis
6,863.174 km
Eccentricity
0.00013
Inclination
43.0027°
RAAN
348.0471°
Arg. of periapsis
275.0324°
True anomaly
85.0528°
Mean anomaly
85.0378°
Eccentric anomaly
85.0453°
Mean motion
3.81729 °/min
Orbital period
94.31 mins
BSTAR
0.0001879
Loading maneuver chart data...
Computing Atmospheric mass density...
Loading historical data...
Loading historical data...
Loading historical data...
Loading historical data...
Loading historical data...
Loading historical data...
Loading historical data...

Documentation

Showing up to 5 results
|